Location: Newark
(44.2003°N, 3.2583°E)
Time: 12:28:50
(UTC+00:00)

Vanguard 3 - Visible Passes

Search period start: 17 October 2019 00:00
Search period end: 27 October 2019 00:00
Orbit: 508 x 3262 km, 33.3° (Epoch: 17 October)

Date Brightness Start Highest point End Pass type
(mag) Time Alt. Az. Time Alt. Az. Time Alt. Az.
17 Oct 9.9 02:11:55 11° ESE 02:11:55 11° ESE 02:12:23 10° ESE visible
17 Oct 8.8 04:16:30 21° SW 04:18:41 25° S 04:25:45 10° SE visible
18 Oct 9.1 03:06:53 22° SSE 03:06:53 22° SSE 03:10:36 10° SE visible
18 Oct 9.4 05:12:10 10° WSW 05:16:36 18° SSW 05:22:40 10° SSE visible
19 Oct 8.9 04:01:52 20° SSW 04:02:38 20° S 04:08:08 10° SE visible
20 Oct 9.6 02:52:17 14° SE 02:52:17 14° SE 02:53:30 10° SE visible
20 Oct 9.4 04:57:33 10° SW 05:00:29 13° SSW 05:04:03 10° S visible
21 Oct 9.3 03:47:19 15° S 03:47:19 15° S 03:50:25 10° SSE visible
